Baker, MT

4:20 AM MDT on June 25, 2017 (GMT -0600)
Baker Municipal

Weather History for KBHK - May, 2013

Change the Weather History Date:

Monday, May 6, 2013

  Actual Average Record
Temperature  
Mean Temperature 52 °F -  
Max Temperature 71 °F 63 °F 75 °F (2005)
Min Temperature 34 °F 43 °F 28 °F (2002)
Degree Days  
Heating Degree Days 12    
Growing Degree Days 2 (Base 50)    
Moisture  
Dew Point 22 °F    
Average Humidity 34    
Maximum Humidity 64    
Minimum Humidity 14    
Precipitation  
Precipitation 0.00 in - - ()
Sea Level Pressure  
Sea Level Pressure 30.05 in    
Wind  
Wind Speed 8 mph (SE)    
Max Wind Speed 14 mph    
Max Gust Speed 20 mph    
Visibility 10 miles    
Events      
Averages and records for this station are not official NWS values.
T = Trace of Precipitation, MM = Missing Value Source: NWS Daily Summary

Daily Weather History Graph

Daily Weather History Graph

Search for Another Location

Airport or City:

Trip Planner

Search our weather history database for the weather conditions in past years. The results will help you decide how hot, cold, wet, or windy it might be!

Date:

Astronomy

May. 06, 2013 Rise Set
Actual Time 5:35 AM MDT 8:12 PM MDT
Civil Twilight 5:01 AM MDT 8:47 PM MDT
Nautical Twilight 4:18 AM MDT 9:30 PM MDT
Astronomical Twilight 3:28 AM MDT 10:20 PM MDT
Moon 3:49 AM MDT (5/6) 5:06 PM MDT (5/6)
Length of Visible Light 15h 46m
Length of Day
14h 37m
Waning Crescent, 10% of the Moon is Illuminated
May 6
Waning Crescent
May 9
New
May 17
First Quarter
May 24
Full
May 31
Last Quarter

Hourly Weather History & Observations

Time (MDT) Temp. Windchill Dew Point Humidity Pressure Visibility Wind Dir Wind Speed Gust Speed Precip Events Conditions
12:51 AM 39.0 °F 32.3 °F 25.0 °F 57% 30.14 in 10.0 mi SE 10.4 mph - N/A   Clear
1:51 AM 36.0 °F 31.1 °F 24.1 °F 62% 30.13 in 10.0 mi South 5.8 mph - N/A   Clear
2:51 AM 35.1 °F 30.1 °F 23.0 °F 61% 30.12 in 10.0 mi SSE 5.8 mph - N/A   Clear
3:51 AM 34.0 °F 28.8 °F 23.0 °F 64% 30.12 in 10.0 mi SSE 5.8 mph - N/A   Clear
4:51 AM 37.0 °F 32.4 °F 21.9 °F 54% 30.11 in 10.0 mi SE 5.8 mph - N/A   Clear
5:51 AM 37.9 °F 32.1 °F 21.9 °F 53% 30.10 in 10.0 mi SSE 8.1 mph - N/A   Clear
6:51 AM 45.0 °F 43.5 °F 25.0 °F 46% 30.10 in 10.0 mi ESE 3.5 mph - N/A   Clear
7:51 AM 52.0 °F - 25.0 °F 35% 30.10 in 10.0 mi SE 8.1 mph - N/A   Clear
8:51 AM 57.0 °F - 21.9 °F 26% 30.10 in 10.0 mi SE 12.7 mph - N/A   Clear
9:51 AM 61.0 °F - 19.9 °F 21% 30.09 in 10.0 mi SSE 13.8 mph 19.6 mph N/A   Clear
10:51 AM 63.0 °F - 21.0 °F 20% 30.09 in 10.0 mi SE 12.7 mph 17.3 mph N/A   Clear
11:51 AM 64.0 °F - 19.9 °F 18% 30.08 in 10.0 mi Variable 4.6 mph 17.3 mph N/A   Clear
12:51 PM 66.0 °F - 21.0 °F 18% 30.06 in 10.0 mi South 9.2 mph - N/A   Clear
1:51 PM 68.0 °F - 21.0 °F 17% 30.04 in 10.0 mi Variable 3.5 mph - N/A   Clear
2:51 PM 70.0 °F - 21.0 °F 16% 30.02 in 10.0 mi SSE 12.7 mph - N/A   Clear
3:51 PM 70.0 °F - 21.0 °F 16% 29.99 in 10.0 mi South 6.9 mph - N/A   Clear
4:51 PM 71.1 °F - 19.9 °F 14% 29.97 in 10.0 mi ESE 4.6 mph - N/A   Clear
5:51 PM 69.1 °F - 18.0 °F 14% 29.96 in 10.0 mi East 10.4 mph - N/A   Clear
6:51 PM 66.9 °F - 17.1 °F 15% 29.95 in 10.0 mi East 13.8 mph - N/A   Clear
7:51 PM 60.1 °F - 21.0 °F 22% 29.95 in 10.0 mi ESE 9.2 mph - N/A   Clear
8:51 PM 46.9 °F - 24.1 °F 41% 29.97 in 10.0 mi SE 9.2 mph - N/A   Clear
9:51 PM 44.1 °F 40.1 °F 23.0 °F 43% 29.99 in 10.0 mi SSE 6.9 mph - N/A   Clear
10:51 PM 43.0 °F 37.7 °F 24.1 °F 47% 29.98 in 10.0 mi SE 9.2 mph - N/A   Clear
11:51 PM 42.1 °F 36.6 °F 23.0 °F 47% 29.98 in 10.0 mi ESE 9.2 mph - N/A   Clear